Weather History for Huntington, WV

Change the Weather History Date:

Thursday, October 24, 2013

  Actual Average Record
Temperature  
Mean Temperature 43 °F 54 °F  
Max Temperature 49 °F 66 °F 84 °F (1991)
Min Temperature 37 °F 43 °F 24 °F (1964)
Degree Days  
Heating Degree Days 22 11  
Month to date heating degree days 165 195  
Since 1 July heating degree days 203 253  
Cooling Degree Days 0 0  
Month to date cooling degree days 47 16  
Year to date cooling degree days 1212 1127  
Moisture  
Dew Point 34 °F    
Average Humidity 69    
Maximum Humidity 92    
Minimum Humidity 46    
Precipitation  
Precipitation 0.03 in 0.09 in 0.88 in (1923)
Month to date precipitation 1.82 2.12  
Year to date precipitation 35.96 35.15  
Snow  
Snow 0.00 in - - ()
Month to date snowfall 0.0  
Since 1 September snowfall 0.0  
Snow Depth 0.00 in    
Sea Level Pressure  
Sea Level Pressure 30.14 in    
Wind  
Wind Speed 4 mph (WSW)    
Max Wind Speed 13 mph    
Max Gust Speed 20 mph    
Visibility 10 miles    
Events Rain    
T = Trace of Precipitation, MM = Missing Value Source: NWS Daily Summary

Daily Weather History Graph

Daily Weather History Graph

Search for Another Location

Airport:

Trip Planner

Search our weather history database for the weather conditions in past years. The results will help you decide how hot, cold, wet, or windy it might be!

Date:

Astronomy

Oct. 24, 2013 Rise Set
Actual Time 7:48 AM EDT 6:39 PM EDT
Civil Twilight 7:21 AM EDT 7:06 PM EDT
Nautical Twilight 6:50 AM EDT 7:37 PM EDT
Astronomical Twilight 6:19 AM EDT 8:08 PM EDT
Moon 11:04 PM EDT (10/24) 12:46 PM EDT (10/24)
Length of Visible Light 11h 45m
Length of Day
10h 51m
Waning Gibbous, 71% of the Moon is Illuminated
Oct 24
Waning Gibbous
Oct 26
Last Quarter
Nov 3
New
Nov 10
First Quarter
Nov 17
Full

Hourly Weather History & Observations

Time (EDT) Temp. Windchill Dew Point Humidity Pressure Visibility Wind Dir Wind Speed Gust Speed Precip Events Conditions
12:51 AM 37.0 °F - 35.1 °F 93% 30.06 in 10.0 mi Calm Calm - N/A   Overcast
1:51 AM 39.0 °F 36.8 °F 36.0 °F 89% 30.06 in 10.0 mi SSW 3.5 mph - 0.00 in   Overcast
2:51 AM 39.0 °F - 36.0 °F 89% 30.07 in 10.0 mi Calm Calm - N/A   Overcast
3:51 AM 39.0 °F 36.8 °F 36.0 °F 89% 30.08 in 10.0 mi SSW 3.5 mph - N/A   Overcast
4:51 AM 39.0 °F 36.8 °F 36.0 °F 89% 30.08 in 10.0 mi WSW 3.5 mph - N/A   Overcast
5:37 AM 39.2 °F - 35.6 °F 87% 30.08 in 9.0 mi Calm Calm - N/A   Overcast
5:51 AM 39.0 °F 36.8 °F 36.0 °F 89% 30.09 in 9.0 mi SW 3.5 mph - N/A   Overcast
6:51 AM 39.0 °F 36.8 °F 36.0 °F 89% 30.10 in 10.0 mi West 3.5 mph - N/A   Overcast
7:05 AM 39.2 °F - 35.6 °F 87% 30.09 in 10.0 mi Calm Calm - N/A   Overcast
7:15 AM 39.2 °F - 35.6 °F 87% 30.09 in 10.0 mi Calm Calm - N/A   Overcast
7:19 AM 39.2 °F - 35.6 °F 87% 30.09 in 10.0 mi Calm Calm - N/A   Overcast
7:51 AM 39.0 °F - 36.0 °F 89% 30.11 in 10.0 mi Calm Calm - N/A   Overcast
8:51 AM 39.0 °F 34.8 °F 36.0 °F 89% 30.13 in 7.0 mi SSW 5.8 mph - N/A   Overcast
9:27 AM 39.2 °F 35.0 °F 35.6 °F 87% 30.12 in 9.0 mi SW 5.8 mph - N/A   Overcast
9:51 AM 41.0 °F 37.1 °F 36.0 °F 82% 30.14 in 10.0 mi SSW 5.8 mph - N/A   Overcast
10:51 AM 42.1 °F 38.4 °F 34.0 °F 73% 30.14 in 10.0 mi SW 5.8 mph - N/A   Overcast
11:51 AM 42.1 °F 35.2 °F 33.1 °F 70% 30.15 in 10.0 mi West 12.7 mph 19.6 mph N/A   Overcast
12:51 PM 46.0 °F 42.5 °F 32.0 °F 58% 30.14 in 10.0 mi West 6.9 mph 17.3 mph N/A   Overcast
1:51 PM 46.9 °F - 28.9 °F 50% 30.13 in 10.0 mi West 6.9 mph - N/A   Mostly Cloudy
2:51 PM 46.9 °F - 28.0 °F 48% 30.12 in 10.0 mi WSW 8.1 mph - N/A   Overcast
3:51 PM 46.0 °F 43.1 °F 28.9 °F 51% 30.13 in 10.0 mi WSW 5.8 mph - 0.00 in   Overcast
4:51 PM 48.0 °F - 28.9 °F 48% 30.14 in 10.0 mi Variable 4.6 mph - N/A   Overcast
5:51 PM 45.0 °F - 30.0 °F 56% 30.15 in 10.0 mi Calm Calm - N/A   Overcast
6:51 PM 42.1 °F 39.2 °F 32.0 °F 67% 30.17 in 10.0 mi Variable 4.6 mph - 0.00 in Rain Light Rain
7:51 PM 39.9 °F - 34.0 °F 79% 30.19 in 10.0 mi Calm Calm - 0.00 in   Overcast
8:51 PM 41.0 °F 39.0 °F 33.1 °F 73% 30.20 in 10.0 mi WNW 3.5 mph - 0.00 in   Overcast
9:51 PM 39.9 °F 37.8 °F 34.0 °F 79% 30.22 in 10.0 mi SW 3.5 mph - 0.00 in Rain Light Rain
10:02 PM 39.2 °F - 33.8 °F 81% 30.22 in 10.0 mi Calm Calm - 0.00 in Rain Light Rain
10:51 PM 39.9 °F - 36.0 °F 86% 30.24 in 10.0 mi Calm Calm - 0.01 in Rain Light Rain
11:16 PM 39.2 °F 33.6 °F 35.6 °F 87% 30.23 in 9.0 mi WNW 8.1 mph - 0.01 in Rain Light Rain
11:51 PM 39.0 °F 35.7 °F 36.0 °F 89% 30.25 in 10.0 mi WSW 4.6 mph - 0.01 in Rain Light Rain